Regional Weather Roundup
Issued by NWS

Home | Current Version | Previous Version | Text Only | Print | Product List | Glossary On
Versions: 1 2 3 4 5 6 7 8 9 10 11 12 13 14 15 16 17 18 19 20 21 22 23 24 25 26 27 28 29 30 31 32 33 34 35 36 37 38 39 40 41 42 43 44 45 46 47 48 49 50
000
ASUS42 KFFC 210010
RWRGA
WEATHER ROUNDUP FOR GEORGIA
NATIONAL WEATHER SERVICE PEACHTREE CITY GA
800 PM EDT THU JUL 20 2017

NOTE: "FAIR" INDICATES FEW OR NO CLOUDS BELOW 12,000 FEET WITH NO
SIGNIFICANT WEATHER AND/OR OBSTRUCTIONS TO VISIBILITY.

* = USE WITH CAUTION. THE STATIONS MARKED WITH AN ASTERISK MAY NOT
REPORT WEATHER SUCH AS PRECIPITATION, FOG, OR THUNDER AND ARE NOT
QUALITY CONTROLLED BY NWS.

THE REMARK "TC" DENOTES TEMPERATURE READING IN DEGREES CELSIUS.

GAZ001>058-210100-
NORTH GEORGIA

CITY           SKY/WX    TMP DP  RH WIND       PRES   REMARKS
ATLANTA        PTCLDY    88  69  53 NW8       30.03S HX  92
6HR MIN TEMP:  88; 6HR MAX TEMP:  93;

ATHENS         CLEAR     89  69  51 NW3       30.01S HX  93
6HR MIN TEMP:  88; 6HR MAX TEMP:  96;

CHAMBLEE       CLEAR     87  70  56 NW9       30.03S HX  92
6HR MIN TEMP:  87; 6HR MAX TEMP:  94;

PEACHTREE CITY CLOUDY    82  75  79 CALM      30.04R
6HR MIN TEMP:  82; 6HR MAX TEMP:  94;

ROME           CLEAR     90  75  61 NW5       30.02R HX 100
6HR MIN TEMP:  90; 6HR MAX TEMP:  94;

WEST ATLANTA   CLEAR     88  72  58 NW6       30.03R HX  94
6HR MIN TEMP:  88; 6HR MAX TEMP:  92; 6HR PCP: TRACE;

GAINESVILLE    CLEAR     87  67  51 NW6       30.06R HX  90
6HR MIN TEMP:  87; 6HR MAX TEMP:  93;

CARTERSVILLE   PTCLDY    85  76  74 CALM      30.03S HX  94
6HR MIN TEMP:  85; 6HR MAX TEMP:  93;



CITY           SKY/WX    TMP DP  RH WIND       PRES   REMARKS
LAWRENCEVILLE* CLEAR     88  70  55 W7        30.04S HX  92
MARIETTA       PTCLDY    89  69  52 NW8       30.04S HX  93
KENNESAW*      CLEAR     90  70  51 CALM      30.05S HX  95
CANTON*        PTCLDY    88  73  62 NW5       30.06S HX  96
$$

GAZ059>098-102>109-210100-
CENTRAL GEORGIA

CITY           SKY/WX    TMP DP  RH WIND       PRES   REMARKS
AUGUSTA-BUSH   CLOUDY    86  73  65 S8        29.99R HX  93
6HR MIN TEMP:  86; 6HR MAX TEMP:  98; 6HR PCP: TRACE;

AUGUSTA-DANIEL PTCLDY    87  70  56 S12       30.00R THUNDER HX  92
6HR MIN TEMP:  87; 6HR MAX TEMP:  98;

COLUMBUS       CLEAR     88  70  55 N9        30.01R HX  93
6HR MIN TEMP:  87; 6HR MAX TEMP:  98;

MACON          PTCLDY    92  67  43 W5        29.99R HX  95
6HR MIN TEMP:  92; 6HR MAX TEMP:  98;

ROBINS AFB     MOCLDY    95  68  41 VRB2      29.99R HX  99


CITY           SKY/WX    TMP DP  RH WIND       PRES   REMARKS
LAGRANGE*      CLEAR     84  77  78 NW6       30.04S HX  94
SYLVANIA*      MOCLDY    80  74  83 CALM      30.04R
MILLEDGEVILLE* PTCLDY    90  72  55 CALM      29.99R HX  96
$$

GAZ099>101-110>166-210100-
SOUTH GEORGIA

CITY           SKY/WX    TMP DP  RH WIND       PRES   REMARKS
SAVANNAH       MOCLDY    80  72  76 SW3       30.02S
6HR MIN TEMP:  79; 6HR MAX TEMP:  97; 6HR PCP: TRACE;

VALDOSTA       CLOUDY    78  70  76 CALM      30.02F
6HR MIN TEMP:  77; 6HR MAX TEMP:  94;

ALMA           CLOUDY    76  73  91 SE6       30.03F
6HR MIN TEMP:  76; 6HR MAX TEMP:  95; 6HR PCP:  0.26;

ST SIMONS      CLEAR     83  71  67 CALM      30.04S
6HR MIN TEMP:  81; 6HR MAX TEMP:  90;

FT STEWART     MOCLDY    75  69  82 CALM      30.00S
ALBANY         MOCLDY    90  74  59 S8G17     30.01S HX  99
HUNTER AFB     PTCLDY    80  71  76 S5        30.00R
MOODY AFB      CLOUDY    78  71  78 CALM      30.01S
BRUNSWICK      CLEAR     81  72  74 S6        30.05R


CITY           SKY/WX    TMP DP  RH WIND       PRES   REMARKS
BAINBRIDGE*    CLOUDY    88  77  70 E6        30.00S HX 100
MOULTRIE*      TSTM      73  70  88 S17G25    30.05R
VIDALIA*       MOCLDY    79  72  78 S6        30.03R
WAYCROSS*      CLOUDY    75  75 100 CALM      30.05R
DOUGLAS*       CLOUDY    77  68  73 CALM      30.05S
$$




USA.gov is the U.S. government's official web portal to all federal, state and local government web resources and services.